Location: Leipzig
(51.3392°N, 12.3528°E)
Time: 08:45:15
(UTC+02:00)

Envisat - Visible Passes

Search period start: 24 April 2018 00:00
Search period end: 04 May 2018 00:00
Orbit: 764 x 766 km, 98.2° (Epoch: 23 April)

Date Brightness Start Highest point End Pass type
(mag) Time Alt. Az. Time Alt. Az. Time Alt. Az.
24 Apr 4.2 20:56:56 10° S 21:01:48 45° W 21:06:42 10° NNW visible
25 Apr 5.7 22:01:58 10° WSW 22:04:45 15° W 22:07:32 10° NW visible
26 Apr 5.0 21:23:13 10° SSW 21:27:34 28° W 21:31:57 10° NNW visible
28 Apr 5.6 21:50:02 10° SW 21:53:27 18° W 21:56:52 10° NW visible
29 Apr 4.7 21:11:43 10° SSW 21:16:20 34° W 21:20:58 10° NNW visible
30 Apr 6.0 22:18:17 10° W 22:19:26 11° W 22:20:35 10° WNW visible
01 May 5.4 21:38:17 10° SW 21:42:09 22° W 21:46:04 10° NW visible
03 May 5.7 22:05:39 10° WSW 22:08:06 13° W 22:10:33 10° NW visible
